User: anonymous   Login
Location: Unspecified
(0.0000°N, 0.0000°E)
Time: 11:32:01
(UTC+01:00)
Language:

Iridium 39 - Orbit

View from above orbital plane
View from above orbital plane
View from above satellite
View from above satellite

Ground track
Ground track

The orbit data is extracted from the following two-line orbital elements,

1 25042U 97069D   16037.52968489  .00000009  00000-0 -38664-5 0  9994
2 25042  86.3944 229.7734 0001963  93.8041 266.3379 14.34216826955122
Epoch (UTC): 06 February 2016 12:42:44
Eccentricity: 0.0001963
inclination: 86.3944°
perigee height: 776 km
apogee height: 779 km
right ascension of ascending node: 229.7734°
argument of perigee: 93.8041°
revolutions per day: 14.34216826
mean anomaly at epoch: 266.3379°
orbit number at epoch: 95512

The dashed part of the orbit path shows where the satellite is in the earth's shadow,  

DLR